Location: Waco, TX
(31.5480°N, 97.1670°W)
Time: 22:16:17
(UTC-05:00)

ISS - Pass Details

Date: 23 September 2018
Orbit: 403 x 408 km, 51.6° (Epoch: 25 September)

Event Time Altitude Azimuth Distance (km) Brightness Sun altitude
Rises 20:13:41 0° 246° (WSW) 2,320 1.1 -11.4°
Reaches altitude 10° 20:15:55 10° 258° (WSW) 1,463 0.3 -11.9°
Maximum altitude 20:18:50 29° 321° (NW) 782 -1.9 -12.5°
Drops below altitude 10° 20:21:45 10° 23° (NNE) 1,467 -1.2 -13.1°
Enters shadow 20:23:11 - 32° (NNE) 2,003 -0.5 -13.4°
Sets 20:24:01 0° 35° (NE) 2,330 - -13.6°
